Location: Ajisawe
(8.4333°N, 4.3833°E)
Time: 10:39:58
(UTC+00:00)

Vanguard 2 Rocket - Pass Details

Date: 26 April 2021
Orbit: 553 x 3326 km, 32.9° (Epoch: 07 May)

Event Time Altitude Azimuth Distance (km) Brightness Sun altitude
Rises 19:58:21 0° 295° (WNW) 7,000 12.6 -30.6°
Reaches altitude 10° 20:03:48 10° 290° (WNW) 5,682 11.8 -31.9°
Maximum altitude 20:18:34 45° 223° (SW) 2,557 9.1 -35.3°
Enters shadow 20:21:39 38° 188° (S) 2,513 8.9 -36.0°
Drops below altitude 10° 20:27:24 10° 153° (SSE) 3,460 - -37.3°
Sets 20:29:55 0° 145° (SE) 4,135 - -37.8°
